| time (UTC) | temp F | wind direction | speed knots | gust knots | rain 1hr in | rain 24hr in | rain mn in | humidity % | barometer mb |
| 20260504081804 | 79 | 0 | 0.0 | 0.0 | 0.00 | 0.00 | 0.00 | 52 | 1015.3 |
| 20260504080935 | 79 | 0 | 0.0 | 0.0 | 0.00 | 0.00 | 0.00 | 50 | 1015.3 |
| 20260504080804 | 79 | 0 | 0.0 | 0.0 | 0.00 | 0.00 | 0.00 | 50 | 1015.3 |
| 20260504044803 | 78 | 0 | 0.0 | 0.0 | 0.00 | 0.00 | 0.00 | 50 | 1016.8 |
| 20260504043935 | 78 | 0 | 0.0 | 0.0 | 0.00 | 0.00 | 0.00 | 53 | 1016.9 |
| 20260504043803 | 78 | 0 | 0.0 | 0.0 | 0.00 | 0.00 | 0.00 | 52 | 1016.9 |
| 20260504042802 | 77 | 90 | 0.0 | 0.0 | 0.00 | 0.00 | 0.00 | 52 | 1016.9 |
| 20260504041803 | 78 | 0 | 0.0 | 0.0 | 0.00 | 0.00 | 0.00 | 52 | 1017.0 |
| 20260504040934 | 77 | 0 | 0.0 | 0.0 | 0.00 | 0.00 | 0.00 | 49 | 1017.1 |
| 20260504040803 | 78 | 0 | 0.0 | 0.0 | 0.00 | 0.00 | 0.00 | 53 | 1017.1 |
| 20260504035803 | 77 | 0 | 0.0 | 0.0 | 0.00 | 0.00 | 0.00 | 53 | 1017.2 |
| 20260504034803 | 77 | 0 | 0.0 | 0.0 | 0.00 | 0.00 | 0.00 | 51 | 1017.4 |
| 20260504033802 | 77 | 0 | 0.0 | 0.0 | 0.00 | 0.00 | 0.00 | 52 | 1017.5 |
| 20260504032803 | 76 | 0 | 0.0 | 0.0 | 0.00 | 0.00 | 0.00 | 54 | 1017.5 |
| 20260504031803 | 76 | 0 | 0.0 | 0.0 | 0.00 | 0.00 | 0.00 | 55 | 1017.5 |
| 20260504030934 | 75 | 0 | 0.0 | 0.0 | 0.00 | 0.00 | 0.00 | 54 | 1017.7 |
| 20260504030803 | 75 | 0 | 0.0 | 0.0 | 0.00 | 0.00 | 0.00 | 55 | 1017.8 |
| 20260504025802 | 75 | 0 | 0.0 | 0.0 | 0.00 | 0.00 | 0.00 | 55 | 1017.8 |
| 20260504024802 | 75 | 0 | 0.0 | 0.0 | 0.00 | 0.00 | 0.00 | 58 | 1018.0 |
| 20260504023934 | 75 | 0 | 0.0 | 0.0 | 0.00 | 0.00 | 0.00 | 60 | 1018.0 |
| 20260504023803 | 74 | 0 | 0.0 | 0.0 | 0.00 | 0.01 | 0.00 | 60 | 1018.0 |
| 20260504022802 | 74 | 0 | 0.0 | 0.0 | 0.00 | 0.01 | 0.00 | 61 | 1018.0 |
| 20260504021802 | 73 | 0 | 0.0 | 0.0 | 0.00 | 0.01 | 0.00 | 62 | 1018.0 |
| 20260504020933 | 73 | 0 | 0.0 | 0.0 | 0.00 | 0.01 | 0.00 | 64 | 1018.0 |
| 20260504020802 | 73 | 0 | 0.0 | 0.0 | 0.00 | 0.01 | 0.00 | 64 | 1018.0 |
| 20260504015802 | 72 | 0 | 0.0 | 0.0 | 0.00 | 0.01 | 0.00 | 62 | 1018.0 |
| 20260504014803 | 72 | 0 | 0.0 | 0.0 | 0.00 | 0.01 | 0.00 | 64 | 1018.0 |
| 20260504013934 | 72 | 0 | 0.0 | 0.0 | 0.00 | 0.01 | 0.00 | 68 | 1018.0 |
| 20260504013801 | 72 | 0 | 0.0 | 0.0 | 0.00 | 0.01 | 0.00 | 67 | 1018.0 |
| 20260504012803 | 71 | 0 | 0.0 | 0.0 | 0.00 | 0.01 | 0.00 | 69 | 1018.0 |
| 20260504011802 | 71 | 0 | 0.0 | 0.0 | 0.00 | 0.01 | 0.00 | 73 | 1018.0 |
| 20260504010933 | 70 | 0 | 0.0 | 0.0 | 0.00 | 0.01 | 0.00 | 73 | 1018.0 |
| 20260504010802 | 70 | 0 | 0.0 | 0.0 | 0.00 | 0.01 | 0.00 | 72 | 1018.0 |
| 20260504005802 | 70 | 0 | 0.0 | 0.0 | 0.00 | 0.01 | 0.00 | 71 | 1018.0 |
| 20260504004801 | 70 | 0 | 0.0 | 0.0 | 0.00 | 0.01 | 0.00 | 71 | 1018.0 |
| 20260504003934 | 70 | 0 | 0.0 | 0.0 | 0.00 | 0.01 | 0.00 | 73 | 1017.9 |
| 20260504003802 | 70 | 0 | 0.0 | 0.0 | 0.00 | 0.01 | 0.00 | 72 | 1017.9 |
| 20260504002802 | 70 | 0 | 0.0 | 0.0 | 0.00 | 0.01 | 0.00 | 75 | 1017.9 |
| 20260504001802 | 69 | 0 | 0.0 | 0.0 | 0.00 | 0.01 | 0.00 | 73 | 1017.8 |
| 20260504000933 | 69 | 0 | 0.0 | 0.0 | 0.00 | 0.01 | 0.00 | 75 | 1017.7 |
| 20260504000802 | 69 | 0 | 0.0 | 0.0 | 0.00 | 0.01 | 0.00 | 76 | 1017.7 |
| 20260503235801 | 69 | 0 | 0.0 | 0.0 | 0.00 | 0.01 | 0.00 | 78 | 1017.7 |
| 20260503234802 | 69 | 0 | 0.0 | 0.0 | 0.00 | 0.01 | 0.00 | 79 | 1017.6 |
| 20260503233933 | 68 | 0 | 0.0 | 0.0 | 0.00 | 0.01 | 0.00 | 79 | 1017.7 |
| 20260503233801 | 68 | 0 | 0.0 | 0.0 | 0.00 | 0.01 | 0.00 | 78 | 1017.6 |
| 20260503232801 | 68 | 0 | 0.0 | 0.0 | 0.00 | 0.01 | 0.00 | 77 | 1017.6 |
| 20260503231801 | 68 | 0 | 0.0 | 0.0 | 0.00 | 0.01 | 0.00 | 76 | 1017.5 |
| 20260503230933 | 68 | 0 | 0.0 | 0.0 | 0.00 | 0.01 | 0.00 | 76 | 1017.4 |
| 20260503230802 | 68 | 0 | 0.0 | 0.0 | 0.00 | 0.01 | 0.00 | 76 | 1017.4 |
| 20260503225802 | 68 | 0 | 0.0 | 0.0 | 0.00 | 0.01 | 0.00 | 76 | 1017.2 |
| 20260503224801 | 68 | 0 | 0.0 | 0.0 | 0.00 | 0.01 | 0.00 | 76 | 1017.1 |
| 20260503223933 | 68 | 0 | 0.0 | 0.0 | 0.00 | 0.01 | 0.00 | 75 | 1017.0 |
| 20260503223801 | 68 | 0 | 0.0 | 0.0 | 0.00 | 0.01 | 0.00 | 75 | 1016.9 |
| 20260503222801 | 68 | 0 | 0.0 | 0.0 | 0.00 | 0.01 | 0.00 | 74 | 1016.7 |
| 20260503221801 | 67 | 0 | 0.0 | 0.0 | 0.00 | 0.01 | 0.00 | 73 | 1016.6 |
| 20260503220933 | 67 | 0 | 0.0 | 0.0 | 0.00 | 0.01 | 0.00 | 74 | 1016.6 |
| 20260503220802 | 67 | 0 | 0.0 | 0.0 | 0.00 | 0.01 | 0.00 | 74 | 1016.6 |
| 20260503215801 | 67 | 0 | 0.0 | 0.0 | 0.00 | 0.01 | 0.00 | 76 | 1016.5 |
| 20260503214801 | 67 | 0 | 0.0 | 0.0 | 0.00 | 0.02 | 0.00 | 75 | 1016.4 |
| 20260503213932 | 67 | 0 | 0.0 | 0.0 | 0.00 | 0.02 | 0.00 | 74 | 1016.4 |
| 20260503213801 | 67 | 0 | 0.0 | 0.0 | 0.00 | 0.02 | 0.00 | 73 | 1016.4 |
| 20260503212801 | 68 | 0 | 0.0 | 0.0 | 0.00 | 0.03 | 0.00 | 72 | 1016.2 |
| 20260503211802 | 68 | 0 | 0.0 | 0.0 | 0.00 | 0.05 | 0.00 | 72 | 1016.1 |
| 20260503210932 | 68 | 0 | 0.0 | 0.0 | 0.00 | 0.05 | 0.00 | 72 | 1016.0 |
| 20260503210801 | 68 | 0 | 0.0 | 0.0 | 0.00 | 0.05 | 0.00 | 72 | 1016.0 |
| 20260503205801 | 68 | 0 | 0.0 | 0.0 | 0.00 | 0.06 | 0.00 | 72 | 1016.0 |
| 20260503204801 | 68 | 0 | 0.0 | 0.0 | 0.00 | 0.09 | 0.00 | 72 | 1016.0 |
| 20260503203932 | 68 | 0 | 0.0 | 0.0 | 0.00 | 0.10 | 0.00 | 72 | 1015.9 |
| 20260503203801 | 68 | 0 | 0.0 | 0.0 | 0.00 | 0.10 | 0.00 | 72 | 1015.9 |
| 20260503202800 | 68 | 0 | 0.0 | 0.0 | 0.00 | 0.10 | 0.00 | 72 | 1015.9 |
| 20260503201801 | 68 | 0 | 0.0 | 0.0 | 0.00 | 0.11 | 0.00 | 72 | 1015.8 |
| 20260503200932 | 68 | 0 | 0.0 | 0.0 | 0.00 | 0.11 | 0.00 | 72 | 1015.8 |
| 20260503200801 | 68 | 0 | 0.0 | 0.0 | 0.00 | 0.11 | 0.00 | 72 | 1015.8 |
| 20260503195801 | 67 | 0 | 0.0 | 0.0 | 0.00 | 0.13 | 0.00 | 73 | 1015.6 |
| 20260503194801 | 67 | 0 | 0.0 | 0.0 | 0.00 | 0.13 | 0.00 | 72 | 1015.6 |
| 20260503193932 | 67 | 0 | 0.0 | 0.0 | 0.00 | 0.15 | 0.00 | 74 | 1015.4 |
| 20260503193800 | 67 | 0 | 0.0 | 0.0 | 0.00 | 0.15 | 0.00 | 74 | 1015.4 |
| 20260503192800 | 67 | 0 | 0.0 | 0.0 | 0.00 | 0.18 | 0.00 | 73 | 1015.3 |
| 20260503191801 | 67 | 0 | 0.0 | 0.0 | 0.00 | 0.18 | 0.00 | 74 | 1015.2 |
| 20260503190932 | 67 | 0 | 0.0 | 0.0 | 0.00 | 0.20 | 0.00 | 74 | 1015.2 |
| 20260503190801 | 67 | 0 | 0.0 | 0.0 | 0.00 | 0.20 | 0.00 | 74 | 1015.2 |
| 20260503185801 | 67 | 0 | 0.0 | 0.0 | 0.00 | 0.20 | 0.00 | 74 | 1015.4 |
| 20260503184801 | 67 | 0 | 0.0 | 0.0 | 0.00 | 0.22 | 0.00 | 74 | 1015.5 |
| 20260503183931 | 67 | 0 | 0.0 | 0.0 | 0.00 | 0.23 | 0.00 | 74 | 1015.3 |
| 20260503183800 | 67 | 0 | 0.0 | 0.0 | 0.00 | 0.23 | 0.00 | 74 | 1015.3 |
| 20260503182800 | 67 | 0 | 0.0 | 0.0 | 0.00 | 0.26 | 0.00 | 75 | 1015.2 |
| 20260503181800 | 67 | 0 | 0.0 | 0.0 | 0.00 | 0.28 | 0.00 | 74 | 1015.3 |
| 20260503180931 | 68 | 0 | 0.0 | 0.0 | 0.00 | 0.31 | 0.00 | 75 | 1015.2 |
| 20260503180800 | 68 | 0 | 0.0 | 0.0 | 0.00 | 0.31 | 0.00 | 75 | 1015.2 |
| 20260503175801 | 67 | 0 | 0.0 | 0.0 | 0.00 | 0.33 | 0.00 | 74 | 1015.2 |
| 20260503174800 | 68 | 0 | 0.0 | 0.0 | 0.00 | 0.35 | 0.00 | 73 | 1015.0 |
| 20260503173932 | 68 | 0 | 0.0 | 0.0 | 0.00 | 0.37 | 0.00 | 72 | 1015.1 |
| 20260503173800 | 68 | 0 | 0.0 | 0.0 | 0.00 | 0.37 | 0.00 | 72 | 1015.1 |
| 20260503172801 | 68 | 0 | 0.0 | 0.0 | 0.00 | 0.40 | 0.00 | 73 | 1015.1 |
| 20260503171800 | 68 | 0 | 0.0 | 0.0 | 0.00 | 0.42 | 0.00 | 71 | 1015.3 |
| 20260503170931 | 68 | 0 | 0.0 | 0.0 | 0.00 | 0.44 | 0.00 | 72 | 1015.2 |
| 20260503170800 | 68 | 0 | 0.0 | 0.0 | 0.00 | 0.44 | 0.00 | 72 | 1015.2 |
| 20260503150931 | 69 | 0 | 0.0 | 0.0 | 0.00 | 0.53 | 0.00 | 73 | 1014.6 |
| 20260503150927 | 69 | 0 | 0.0 | 0.0 | 0.00 | 0.53 | 0.00 | 73 | 1014.7 |
| 20260503130930 | 70 | 0 | 0.0 | 0.0 | 0.00 | 0.53 | 0.00 | 67 | 1014.4 |
| 20260503130927 | 70 | 0 | 0.0 | 0.0 | 0.00 | 0.53 | 0.00 | 67 | 1014.3 |